Year,Month,Day,Hour,Minute,Value (Times are PST for temperature in C)
2012,06,27,00,00,12.20
2012,06,27,00,03,12.20
2012,06,27,00,05,12.20
2012,06,27,00,06,12.20
2012,06,27,00,07,12.20
2012,06,27,00,09,12.20
2012,06,27,00,11,12.20
2012,06,27,00,13,12.20
2012,06,27,00,14,12.20
2012,06,27,00,15,12.20
2012,06,27,00,17,12.20
2012,06,27,00,18,12.20
2012,06,27,00,19,12.20
2012,06,27,00,20,12.20
2012,06,27,00,22,12.20
2012,06,27,00,23,12.20
2012,06,27,00,24,12.20
2012,06,27,00,25,12.20
2012,06,27,00,26,12.20
2012,06,27,00,28,12.20
2012,06,27,00,29,12.20
2012,06,27,00,30,12.20
2012,06,27,00,31,12.20
2012,06,27,00,32,12.20
2012,06,27,00,33,12.20
2012,06,27,00,35,12.10
2012,06,27,00,36,12.20
2012,06,27,00,37,12.20
2012,06,27,00,39,12.10
2012,06,27,00,40,12.10
2012,06,27,00,41,12.10
2012,06,27,00,42,12.10
2012,06,27,00,43,12.10
2012,06,27,00,45,12.20
2012,06,27,00,46,12.20
2012,06,27,00,47,12.20
2012,06,27,00,48,12.20
2012,06,27,00,49,12.20
2012,06,27,00,51,12.20
2012,06,27,00,52,12.20
2012,06,27,00,53,12.20
2012,06,27,00,54,12.20
2012,06,27,00,55,12.20
2012,06,27,00,56,12.20
2012,06,27,00,57,12.20
2012,06,27,00,59,12.20
2012,06,27,01,00,12.20
2012,06,27,01,02,12.20
2012,06,27,01,03,12.20
2012,06,27,01,04,12.20
2012,06,27,01,05,12.20
2012,06,27,01,06,12.20
2012,06,27,01,07,12.20
2012,06,27,01,08,12.10
2012,06,27,01,09,12.10
2012,06,27,01,10,12.10
2012,06,27,01,11,12.10
2012,06,27,01,12,12.10
2012,06,27,01,13,12.10
2012,06,27,01,14,12.10
2012,06,27,01,15,12.10
2012,06,27,01,16,12.10
2012,06,27,01,18,12.10
2012,06,27,01,19,12.10
2012,06,27,01,20,12.10
2012,06,27,01,21,12.10
2012,06,27,01,22,12.10
2012,06,27,01,23,12.00
2012,06,27,01,25,12.00
2012,06,27,01,26,12.00
2012,06,27,01,27,12.00
2012,06,27,01,28,12.00
2012,06,27,01,29,12.00
2012,06,27,01,30,12.00
2012,06,27,01,31,12.00
2012,06,27,01,32,12.00
2012,06,27,01,33,12.00
2012,06,27,01,34,12.00
2012,06,27,01,35,12.00
2012,06,27,01,36,12.00
2012,06,27,01,37,12.00
2012,06,27,01,38,12.00
2012,06,27,01,39,12.00
2012,06,27,01,40,12.00
2012,06,27,01,41,12.00
2012,06,27,01,42,12.00
2012,06,27,01,43,12.00
2012,06,27,01,45,12.00
2012,06,27,01,46,12.00
2012,06,27,01,47,12.00
2012,06,27,01,48,12.00
2012,06,27,01,49,12.00
2012,06,27,01,50,12.00
2012,06,27,01,51,12.00
2012,06,27,01,52,12.00
2012,06,27,01,54,12.00
2012,06,27,01,55,12.00
2012,06,27,01,57,11.90
2012,06,27,01,58,11.90
2012,06,27,02,00,11.90
2012,06,27,02,01,11.90
2012,06,27,02,02,11.90
2012,06,27,02,03,11.80
2012,06,27,02,04,11.80
2012,06,27,02,05,11.80
2012,06,27,02,07,11.80
2012,06,27,02,08,11.80
2012,06,27,02,09,11.70
2012,06,27,02,10,11.70
2012,06,27,02,12,11.70
2012,06,27,02,13,11.70
2012,06,27,02,14,11.70
2012,06,27,02,16,11.70
2012,06,27,02,17,11.70
2012,06,27,02,18,11.70
2012,06,27,02,19,11.70
2012,06,27,02,20,11.60
2012,06,27,02,21,11.60
2012,06,27,02,22,11.60
2012,06,27,02,23,11.60
2012,06,27,02,24,11.60
2012,06,27,02,25,11.60
2012,06,27,02,26,11.50
2012,06,27,02,28,11.50
2012,06,27,02,29,11.40
2012,06,27,02,30,11.40
2012,06,27,02,31,11.40
2012,06,27,02,36,11.40
2012,06,27,02,37,11.40
2012,06,27,02,38,11.40
2012,06,27,02,40,11.40
2012,06,27,02,41,11.40
2012,06,27,02,42,11.30
2012,06,27,02,44,11.30
2012,06,27,02,45,11.30
2012,06,27,02,46,11.20
2012,06,27,02,47,11.20
2012,06,27,02,49,11.10
2012,06,27,02,50,11.10
2012,06,27,02,51,11.00
2012,06,27,02,53,11.00
2012,06,27,02,54,11.00
2012,06,27,02,55,10.90
2012,06,27,02,57,10.90
2012,06,27,02,59,10.80
2012,06,27,03,00,10.80
2012,06,27,03,02,10.70
2012,06,27,03,03,10.70
2012,06,27,03,04,10.70
2012,06,27,03,05,10.60
2012,06,27,03,07,10.60
2012,06,27,03,08,10.50
2012,06,27,03,09,10.40
2012,06,27,03,11,10.40
2012,06,27,03,12,10.30
2012,06,27,03,13,10.30
2012,06,27,03,14,10.30
2012,06,27,03,15,10.20
2012,06,27,03,17,10.10
2012,06,27,03,19,10.00
2012,06,27,03,20,10.00
2012,06,27,03,21,9.90
2012,06,27,03,22,9.90
2012,06,27,03,24,9.80
2012,06,27,03,25,9.80
2012,06,27,03,26,9.80
2012,06,27,03,27,9.80
2012,06,27,03,29,9.80
2012,06,27,03,30,9.80
2012,06,27,03,31,9.80
2012,06,27,03,32,9.80
2012,06,27,03,33,9.80
2012,06,27,03,34,9.80
2012,06,27,03,35,9.80
2012,06,27,03,36,9.70
2012,06,27,03,37,9.70
2012,06,27,03,38,9.70
2012,06,27,03,40,9.70
2012,06,27,03,42,9.70
2012,06,27,03,43,9.60
2012,06,27,03,44,9.60
2012,06,27,03,45,9.60
2012,06,27,03,47,9.60
2012,06,27,03,48,9.60
2012,06,27,03,50,9.60
2012,06,27,03,51,9.60
2012,06,27,03,52,9.60
2012,06,27,03,53,9.60
2012,06,27,03,55,9.60
2012,06,27,03,56,9.60
2012,06,27,03,57,9.60
2012,06,27,03,59,9.60
2012,06,27,04,00,9.60
2012,06,27,04,01,9.60
2012,06,27,04,02,9.60
2012,06,27,04,03,9.60
2012,06,27,04,05,9.60
2012,06,27,04,06,9.60
2012,06,27,04,07,9.60
2012,06,27,04,09,9.60
2012,06,27,04,10,9.70
2012,06,27,04,11,9.70
2012,06,27,04,12,9.70
2012,06,27,04,14,9.70
2012,06,27,04,15,9.80
2012,06,27,04,17,9.80
2012,06,27,04,18,9.80
2012,06,27,04,19,9.80
2012,06,27,04,20,9.80
2012,06,27,04,22,9.80
2012,06,27,04,24,9.80
2012,06,27,04,25,9.80
2012,06,27,04,27,9.80
2012,06,27,04,28,9.80
2012,06,27,04,29,9.80
2012,06,27,04,30,9.80
2012,06,27,04,31,9.80
2012,06,27,04,32,9.80
2012,06,27,04,33,9.80
2012,06,27,04,34,9.80
2012,06,27,04,35,9.80
2012,06,27,04,36,9.80
2012,06,27,04,37,9.70
2012,06,27,04,38,9.70
2012,06,27,04,39,9.70
2012,06,27,04,40,9.70
2012,06,27,04,41,9.60
2012,06,27,04,42,9.60
2012,06,27,04,43,9.60
2012,06,27,04,44,9.60
2012,06,27,04,45,9.60
2012,06,27,04,46,9.50
2012,06,27,04,47,9.50
2012,06,27,04,48,9.40
2012,06,27,04,49,9.40
2012,06,27,04,50,9.40
2012,06,27,04,51,9.40
2012,06,27,04,52,9.30
2012,06,27,04,53,9.30
2012,06,27,04,54,9.30
2012,06,27,04,55,9.30
2012,06,27,04,57,9.20
2012,06,27,04,58,9.20
2012,06,27,04,59,9.20
2012,06,27,05,00,9.20
2012,06,27,05,01,9.20
2012,06,27,05,04,9.20
2012,06,27,05,06,9.10
2012,06,27,05,07,9.10
2012,06,27,05,08,9.10
2012,06,27,05,10,9.10
2012,06,27,05,11,9.10
2012,06,27,05,12,9.10
2012,06,27,05,13,9.10
2012,06,27,05,14,9.10
2012,06,27,05,15,9.10
2012,06,27,05,16,9.10
2012,06,27,05,17,9.10
2012,06,27,05,19,9.10
2012,06,27,05,20,9.10
2012,06,27,05,21,9.10
2012,06,27,05,22,9.10
2012,06,27,05,23,9.10
2012,06,27,05,24,9.10
2012,06,27,05,26,9.10
2012,06,27,05,28,9.10
2012,06,27,05,29,9.10
2012,06,27,05,30,9.10
2012,06,27,05,31,9.10
2012,06,27,05,32,9.10
2012,06,27,05,34,9.10
2012,06,27,05,35,9.10
2012,06,27,05,37,9.10
2012,06,27,05,38,9.10
2012,06,27,05,39,9.10
2012,06,27,05,40,9.10
2012,06,27,05,41,9.10
2012,06,27,05,42,9.10
2012,06,27,05,43,9.10
2012,06,27,05,44,9.10
2012,06,27,05,46,9.10
2012,06,27,05,47,9.10
2012,06,27,05,48,9.10
2012,06,27,05,50,9.10
2012,06,27,05,51,9.00
2012,06,27,05,52,9.10
2012,06,27,05,53,9.10
2012,06,27,05,54,9.10
2012,06,27,05,55,9.10
2012,06,27,05,56,9.10
2012,06,27,05,57,9.10
2012,06,27,05,58,9.10
2012,06,27,05,59,9.10
2012,06,27,06,00,9.20
2012,06,27,06,01,9.20
2012,06,27,06,02,9.20
2012,06,27,06,03,9.20
2012,06,27,06,07,9.30
2012,06,27,06,08,9.30
2012,06,27,06,09,9.30
2012,06,27,06,10,9.40
2012,06,27,06,11,9.40
2012,06,27,06,12,9.40
2012,06,27,06,13,9.40
2012,06,27,06,14,9.50
2012,06,27,06,15,9.60
2012,06,27,06,16,9.60
2012,06,27,06,17,9.60
2012,06,27,06,18,9.70
2012,06,27,06,19,9.70
2012,06,27,06,20,9.70
2012,06,27,06,21,9.70
2012,06,27,06,22,9.80
2012,06,27,06,23,9.80
2012,06,27,06,24,9.80
2012,06,27,06,25,9.80
2012,06,27,06,26,9.90
2012,06,27,06,27,9.90
2012,06,27,06,28,9.90
2012,06,27,06,44,10.20
2012,06,27,06,45,10.20
2012,06,27,06,47,10.20
2012,06,27,06,48,10.20
2012,06,27,06,49,10.20
2012,06,27,06,51,10.20
2012,06,27,06,52,10.20
2012,06,27,06,54,10.10
2012,06,27,06,55,10.10
2012,06,27,06,56,10.00
2012,06,27,06,58,9.90
2012,06,27,06,59,9.90
2012,06,27,07,00,9.80
2012,06,27,07,01,9.80
2012,06,27,07,02,9.80
2012,06,27,07,03,9.80
2012,06,27,07,06,9.80
2012,06,27,07,07,9.80
2012,06,27,07,08,9.80
2012,06,27,07,10,9.80
2012,06,27,07,11,9.80
2012,06,27,07,12,9.80
2012,06,27,07,14,9.90
2012,06,27,07,16,9.90
2012,06,27,07,18,9.90
2012,06,27,07,19,10.00
2012,06,27,07,20,10.00
2012,06,27,07,21,10.10
2012,06,27,07,22,10.10
2012,06,27,07,23,10.20
2012,06,27,07,24,10.20
2012,06,27,07,25,10.30
2012,06,27,07,26,10.40
2012,06,27,07,27,10.50
2012,06,27,07,28,10.60
2012,06,27,07,29,10.70
2012,06,27,07,30,10.80
2012,06,27,07,31,10.90
2012,06,27,07,32,11.00
2012,06,27,07,34,11.20
2012,06,27,07,35,11.20
2012,06,27,07,37,11.30
2012,06,27,07,38,11.30
2012,06,27,07,39,11.40
2012,06,27,07,40,11.40
2012,06,27,07,41,11.50
2012,06,27,07,42,11.50
2012,06,27,07,43,11.60
2012,06,27,07,44,11.60
2012,06,27,07,45,11.60
2012,06,27,07,47,11.60
2012,06,27,07,48,11.60
2012,06,27,07,49,11.60
2012,06,27,07,50,11.60
2012,06,27,07,51,11.60
2012,06,27,07,52,11.60
2012,06,27,07,53,11.60
2012,06,27,07,54,11.60
2012,06,27,07,55,11.60
2012,06,27,07,56,11.60
2012,06,27,07,57,11.60
2012,06,27,07,58,11.60
2012,06,27,07,59,11.70
2012,06,27,08,00,11.70
2012,06,27,08,02,11.70
2012,06,27,08,03,11.70
2012,06,27,08,06,11.80
2012,06,27,08,07,11.90
2012,06,27,08,08,11.90
2012,06,27,08,09,11.90
2012,06,27,08,10,11.90
2012,06,27,08,11,12.00
2012,06,27,08,13,12.10
2012,06,27,08,14,12.20
2012,06,27,08,15,12.20
2012,06,27,08,16,12.20
2012,06,27,08,17,12.20
2012,06,27,08,19,12.20
2012,06,27,08,20,12.20
2012,06,27,08,22,12.20
2012,06,27,08,23,12.30
2012,06,27,08,25,12.40
2012,06,27,08,27,12.50
2012,06,27,08,28,12.60
2012,06,27,08,29,12.60
2012,06,27,08,30,12.60
2012,06,27,08,31,12.60
2012,06,27,08,32,12.60
2012,06,27,08,33,12.60
2012,06,27,08,34,12.70
2012,06,27,08,36,12.80
2012,06,27,08,37,12.80
2012,06,27,08,39,12.80
2012,06,27,08,40,12.80
2012,06,27,08,41,12.80
2012,06,27,08,42,12.90
2012,06,27,08,43,12.90
2012,06,27,08,44,12.90
2012,06,27,08,45,12.90
2012,06,27,08,47,12.90
2012,06,27,08,49,13.00
2012,06,27,08,50,13.10
2012,06,27,08,51,13.10
2012,06,27,08,53,13.20
2012,06,27,08,54,13.20
2012,06,27,08,55,13.10
2012,06,27,08,56,13.10
2012,06,27,08,57,13.10
2012,06,27,08,59,13.20
2012,06,27,09,00,13.20
2012,06,27,09,01,13.20
2012,06,27,09,02,13.30
2012,06,27,09,03,13.30
2012,06,27,09,06,13.20
2012,06,27,09,07,13.20
2012,06,27,09,08,13.30
2012,06,27,09,09,13.30
2012,06,27,09,10,13.30
2012,06,27,09,12,13.40
2012,06,27,09,14,13.40
2012,06,27,09,15,13.50
2012,06,27,09,16,13.60
2012,06,27,09,17,13.60
2012,06,27,09,18,13.70
2012,06,27,09,19,13.70
2012,06,27,09,20,13.70
2012,06,27,09,22,13.70
2012,06,27,09,23,13.80
2012,06,27,09,24,13.80
2012,06,27,09,25,13.90
2012,06,27,09,26,13.90
2012,06,27,09,27,14.00
2012,06,27,09,29,14.10
2012,06,27,09,30,14.10
2012,06,27,09,31,14.10
2012,06,27,09,33,14.20
2012,06,27,09,34,14.20
2012,06,27,09,35,14.20
2012,06,27,09,37,14.30
2012,06,27,09,39,14.40
2012,06,27,09,40,14.50
2012,06,27,09,42,14.60
2012,06,27,09,43,14.70
2012,06,27,09,44,14.80
2012,06,27,09,45,14.90
2012,06,27,09,47,15.00
2012,06,27,09,48,15.00
2012,06,27,09,50,15.00
2012,06,27,09,51,15.00
2012,06,27,09,52,15.00
2012,06,27,09,53,14.90
2012,06,27,09,55,14.80
2012,06,27,09,56,14.70
2012,06,27,09,58,14.70
2012,06,27,09,59,14.70
2012,06,27,10,01,14.70
2012,06,27,10,02,14.70
2012,06,27,10,03,14.70
2012,06,27,10,06,14.80
2012,06,27,10,07,14.90
2012,06,27,10,09,14.90
2012,06,27,10,10,15.00
2012,06,27,10,11,15.00
2012,06,27,10,12,15.00
2012,06,27,10,13,15.00
2012,06,27,10,14,15.00
2012,06,27,10,15,15.00
2012,06,27,10,17,15.00
2012,06,27,10,18,15.20
2012,06,27,10,20,15.30
2012,06,27,10,22,15.60
2012,06,27,10,23,15.70
2012,06,27,10,25,15.90
2012,06,27,10,26,15.90
2012,06,27,10,27,16.00
2012,06,27,10,29,16.00
2012,06,27,10,30,16.00
2012,06,27,10,31,16.00
2012,06,27,10,32,16.00
2012,06,27,10,34,16.10
2012,06,27,10,35,16.20
2012,06,27,10,36,16.20
2012,06,27,10,38,16.30
2012,06,27,10,40,16.40
2012,06,27,10,42,16.50
2012,06,27,10,44,16.50
2012,06,27,10,45,16.50
2012,06,27,10,47,16.50
2012,06,27,10,49,16.60
2012,06,27,10,50,16.60
2012,06,27,10,52,16.60
2012,06,27,10,53,16.60
2012,06,27,10,54,16.60
2012,06,27,10,55,16.60
2012,06,27,10,57,16.60
2012,06,27,10,58,16.60
2012,06,27,11,00,16.70
2012,06,27,11,02,16.70
2012,06,27,11,03,16.70
2012,06,27,11,06,16.70
2012,06,27,11,08,16.70
2012,06,27,11,09,16.70
2012,06,27,11,11,16.70
2012,06,27,11,12,16.70
2012,06,27,11,13,16.80
2012,06,27,11,15,16.80
2012,06,27,11,16,16.90
2012,06,27,11,17,16.90
2012,06,27,11,19,17.10
2012,06,27,11,20,17.10
2012,06,27,11,21,17.10
2012,06,27,11,23,17.10
2012,06,27,11,24,17.10
2012,06,27,11,25,17.10
2012,06,27,11,27,17.00
2012,06,27,11,28,17.10
2012,06,27,11,29,17.10
2012,06,27,11,30,17.10
2012,06,27,11,31,17.10
2012,06,27,11,33,17.10
2012,06,27,11,35,17.20
2012,06,27,11,36,17.20
2012,06,27,11,38,17.30
2012,06,27,11,40,17.30
2012,06,27,11,42,17.40
2012,06,27,11,43,17.40
2012,06,27,11,44,17.50
2012,06,27,11,46,17.60
2012,06,27,11,47,17.60
2012,06,27,11,49,17.50
2012,06,27,11,50,17.40
2012,06,27,11,51,17.50
2012,06,27,11,52,17.50
2012,06,27,11,54,17.60
2012,06,27,11,55,17.60
2012,06,27,11,56,17.60
2012,06,27,11,57,17.60
2012,06,27,11,58,17.70
2012,06,27,11,59,17.70
2012,06,27,12,01,17.80
2012,06,27,12,02,17.80
2012,06,27,12,03,17.80
2012,06,27,12,06,17.70
2012,06,27,12,07,17.70
2012,06,27,12,09,17.80
2012,06,27,12,10,17.80
2012,06,27,12,11,17.90
2012,06,27,12,13,17.90
2012,06,27,12,14,17.90
2012,06,27,12,15,17.90
2012,06,27,12,17,17.90
2012,06,27,12,18,17.90
2012,06,27,12,19,18.00
2012,06,27,12,21,18.00
2012,06,27,12,22,18.10
2012,06,27,12,23,18.10
2012,06,27,12,24,18.10
2012,06,27,12,25,18.10
2012,06,27,12,26,18.10
2012,06,27,12,27,18.00
2012,06,27,12,29,18.10
2012,06,27,12,30,18.20
2012,06,27,12,32,18.20
2012,06,27,12,33,18.30
2012,06,27,12,34,18.30
2012,06,27,12,36,18.30
2012,06,27,12,37,18.30
2012,06,27,12,38,18.30
2012,06,27,12,40,18.40
2012,06,27,12,41,18.40
2012,06,27,12,43,18.60
2012,06,27,12,45,18.80
2012,06,27,12,46,18.80
2012,06,27,12,48,18.80
2012,06,27,12,49,18.90
2012,06,27,12,50,18.90
2012,06,27,12,51,19.00
2012,06,27,12,53,19.10
2012,06,27,12,55,19.20
2012,06,27,12,56,19.20
2012,06,27,12,57,19.20
2012,06,27,12,58,19.10
2012,06,27,12,59,19.10
2012,06,27,13,00,19.10
2012,06,27,13,01,19.10
2012,06,27,13,02,19.10
2012,06,27,13,03,19.10
2012,06,27,13,05,19.10
2012,06,27,13,06,19.20
2012,06,27,13,07,19.20
2012,06,27,13,08,19.20
2012,06,27,13,09,19.20
2012,06,27,13,11,19.10
2012,06,27,13,12,19.10
2012,06,27,13,13,19.10
2012,06,27,13,15,19.10
2012,06,27,13,16,19.10
2012,06,27,13,17,19.10
2012,06,27,13,18,19.10
2012,06,27,13,19,19.20
2012,06,27,13,21,19.20
2012,06,27,13,23,19.20
2012,06,27,13,24,19.30
2012,06,27,13,25,19.30
2012,06,27,13,27,19.30
2012,06,27,13,29,19.40
2012,06,27,13,31,19.50
2012,06,27,13,32,19.60
2012,06,27,13,33,19.60
2012,06,27,13,35,19.70
2012,06,27,13,36,19.80
2012,06,27,13,37,19.90
2012,06,27,13,39,19.80
2012,06,27,13,40,19.80
2012,06,27,13,41,19.70
2012,06,27,13,42,19.70
2012,06,27,13,43,19.70
2012,06,27,13,44,19.80
2012,06,27,13,46,19.80
2012,06,27,13,47,19.90
2012,06,27,13,49,20.10
2012,06,27,13,50,20.10
2012,06,27,13,51,20.20
2012,06,27,13,52,20.20
2012,06,27,13,53,20.20
2012,06,27,13,55,20.20
2012,06,27,13,56,20.20
2012,06,27,13,58,20.20
2012,06,27,13,59,20.20
2012,06,27,14,00,20.20
2012,06,27,14,02,20.20
2012,06,27,14,03,20.10
2012,06,27,14,06,20.10
2012,06,27,14,08,20.10
2012,06,27,14,09,20.10
2012,06,27,14,10,20.10
2012,06,27,14,12,20.10
2012,06,27,14,13,20.10
2012,06,27,14,14,20.10
2012,06,27,14,16,20.10
2012,06,27,14,18,20.00
2012,06,27,14,19,20.00
2012,06,27,14,21,19.90
2012,06,27,14,22,19.90
2012,06,27,14,23,19.90
2012,06,27,14,25,19.90
2012,06,27,14,26,19.90
2012,06,27,14,27,19.90
2012,06,27,14,29,19.90
2012,06,27,14,30,19.90
2012,06,27,14,31,19.90
2012,06,27,14,32,19.80
2012,06,27,14,33,19.80
2012,06,27,14,34,19.80
2012,06,27,14,36,19.80
2012,06,27,14,37,19.80
2012,06,27,14,39,19.80
2012,06,27,14,40,19.80
2012,06,27,14,41,19.80
2012,06,27,14,43,19.90
2012,06,27,14,44,19.90
2012,06,27,14,45,20.00
2012,06,27,14,46,20.00
2012,06,27,14,47,20.10
2012,06,27,14,48,20.20
2012,06,27,14,50,20.20
2012,06,27,14,51,20.20
2012,06,27,14,53,20.20
2012,06,27,14,54,20.20
2012,06,27,14,55,20.10
2012,06,27,14,56,20.10
2012,06,27,14,58,20.20
2012,06,27,14,59,20.20
2012,06,27,15,00,20.20
2012,06,27,15,01,20.20
2012,06,27,15,02,20.20
2012,06,27,15,03,20.20
2012,06,27,15,06,20.20
2012,06,27,15,08,20.20
2012,06,27,15,09,20.20
2012,06,27,15,11,20.10
2012,06,27,15,12,20.10
2012,06,27,15,13,20.10
2012,06,27,15,14,20.10
2012,06,27,15,15,20.10
2012,06,27,15,17,20.10
2012,06,27,15,18,20.10
2012,06,27,15,19,20.10
2012,06,27,15,21,20.00
2012,06,27,15,22,20.00
2012,06,27,15,23,19.90
2012,06,27,15,25,19.80
2012,06,27,15,26,19.80
2012,06,27,15,27,19.80
2012,06,27,15,29,19.80
2012,06,27,15,30,19.80
2012,06,27,15,31,19.90
2012,06,27,15,33,19.90
2012,06,27,15,34,19.90
2012,06,27,15,35,19.90
2012,06,27,15,36,19.90
2012,06,27,15,37,20.00
2012,06,27,15,38,20.00
2012,06,27,15,39,20.00
2012,06,27,15,40,20.00
2012,06,27,15,41,20.00
2012,06,27,15,42,20.00
2012,06,27,15,43,20.00
2012,06,27,15,44,19.90
2012,06,27,15,45,19.90
2012,06,27,15,46,19.90
2012,06,27,15,48,19.90
2012,06,27,15,49,19.80
2012,06,27,15,50,19.80
2012,06,27,15,51,19.80
2012,06,27,15,52,19.80
2012,06,27,15,53,19.90
2012,06,27,15,54,19.90
2012,06,27,15,55,19.90
2012,06,27,15,56,19.90
2012,06,27,15,57,19.90
2012,06,27,15,58,19.90
2012,06,27,16,00,19.80
2012,06,27,16,01,19.80
2012,06,27,16,02,19.80
2012,06,27,16,03,19.80
2012,06,27,16,06,19.70
2012,06,27,16,07,19.70
2012,06,27,16,08,19.70
2012,06,27,16,09,19.70
2012,06,27,16,10,19.60
2012,06,27,16,11,19.60
2012,06,27,16,13,19.50
2012,06,27,16,14,19.50
2012,06,27,16,16,19.50
2012,06,27,16,17,19.50
2012,06,27,16,18,19.50
2012,06,27,16,19,19.50
2012,06,27,16,20,19.50
2012,06,27,16,22,19.60
2012,06,27,16,23,19.60
2012,06,27,16,24,19.70
2012,06,27,16,25,19.80
2012,06,27,16,27,19.80
2012,06,27,16,28,19.80
2012,06,27,16,29,19.80
2012,06,27,16,31,19.80
2012,06,27,16,32,19.80
2012,06,27,16,33,19.80
2012,06,27,16,34,19.70
2012,06,27,16,36,19.60
2012,06,27,16,37,19.60
2012,06,27,16,38,19.40
2012,06,27,16,40,19.40
2012,06,27,16,41,19.40
2012,06,27,16,42,19.30
2012,06,27,16,44,19.30
2012,06,27,16,45,19.30
2012,06,27,16,46,19.20
2012,06,27,16,47,19.20
2012,06,27,16,48,19.20
2012,06,27,16,49,19.10
2012,06,27,16,51,19.10
2012,06,27,16,52,19.00
2012,06,27,16,53,19.00
2012,06,27,16,54,19.00
2012,06,27,16,56,18.90
2012,06,27,16,57,19.00
2012,06,27,16,59,18.90
2012,06,27,17,00,18.90
2012,06,27,17,01,18.90
2012,06,27,17,02,18.90
2012,06,27,17,03,18.90
2012,06,27,17,06,18.90
2012,06,27,17,08,18.90
2012,06,27,17,09,18.90
2012,06,27,17,11,18.90
2012,06,27,17,12,18.90
2012,06,27,17,13,18.90
2012,06,27,17,15,18.90
2012,06,27,17,17,18.90
2012,06,27,17,19,18.90
2012,06,27,17,20,18.90
2012,06,27,17,21,18.90
2012,06,27,17,22,18.90
2012,06,27,17,24,18.90
2012,06,27,17,25,18.90
2012,06,27,17,26,18.90
2012,06,27,17,27,18.90
2012,06,27,17,28,18.90
2012,06,27,17,30,18.90
2012,06,27,17,31,19.00
2012,06,27,17,32,19.00
2012,06,27,17,33,19.00
2012,06,27,17,35,19.00
2012,06,27,17,36,19.00
2012,06,27,17,38,19.10
2012,06,27,17,39,19.00
2012,06,27,17,40,18.90
2012,06,27,17,41,18.90
2012,06,27,17,42,18.90
2012,06,27,17,43,18.90
2012,06,27,17,44,18.90
2012,06,27,17,45,18.80
2012,06,27,17,47,18.80
2012,06,27,17,49,18.80
2012,06,27,17,50,18.80
2012,06,27,17,51,18.70
2012,06,27,17,53,18.70
2012,06,27,17,54,18.70
2012,06,27,17,55,18.70
2012,06,27,17,56,18.80
2012,06,27,17,57,18.80
2012,06,27,17,58,18.80
2012,06,27,17,59,18.80
2012,06,27,18,00,18.80
2012,06,27,18,01,18.80
2012,06,27,18,03,18.80
2012,06,27,18,05,18.70
2012,06,27,18,07,18.70
2012,06,27,18,08,18.70
2012,06,27,18,09,18.60
2012,06,27,18,10,18.60
2012,06,27,18,11,18.60
2012,06,27,18,12,18.60
2012,06,27,18,13,18.60
2012,06,27,18,14,18.60
2012,06,27,18,15,18.60
2012,06,27,18,16,18.60
2012,06,27,18,17,18.60
2012,06,27,18,18,18.60
2012,06,27,18,19,18.60
2012,06,27,18,21,18.60
2012,06,27,18,22,18.60
2012,06,27,18,23,18.60
2012,06,27,18,24,18.60
2012,06,27,18,25,18.60
2012,06,27,18,26,18.60
2012,06,27,18,27,18.60
2012,06,27,18,28,18.70
2012,06,27,18,29,18.70
2012,06,27,18,30,18.70
2012,06,27,18,31,18.70
2012,06,27,18,32,18.70
2012,06,27,18,33,18.70
2012,06,27,18,35,18.80
2012,06,27,18,36,18.80
2012,06,27,18,37,18.80
2012,06,27,18,38,18.80
2012,06,27,18,40,18.80
2012,06,27,18,41,18.80
2012,06,27,18,43,18.80
2012,06,27,18,45,18.80
2012,06,27,18,46,18.70
2012,06,27,18,47,18.70
2012,06,27,18,48,18.70
2012,06,27,18,50,18.70
2012,06,27,18,51,18.70
2012,06,27,18,52,18.70
2012,06,27,18,54,18.70
2012,06,27,18,55,18.70
2012,06,27,18,56,18.60
2012,06,27,18,57,18.60
2012,06,27,18,58,18.60
2012,06,27,18,59,18.60
2012,06,27,19,00,18.60
2012,06,27,19,01,18.60
2012,06,27,19,02,18.50
2012,06,27,19,03,18.50
2012,06,27,19,05,18.40
2012,06,27,19,06,18.40
2012,06,27,19,08,18.40
2012,06,27,19,10,18.30
2012,06,27,19,11,18.30
2012,06,27,19,12,18.30
2012,06,27,19,14,18.30
2012,06,27,19,15,18.30
2012,06,27,19,16,18.30
2012,06,27,19,18,18.30
2012,06,27,19,19,18.30
2012,06,27,19,20,18.30
2012,06,27,19,22,18.30
2012,06,27,19,23,18.30
2012,06,27,19,25,18.30
2012,06,27,19,27,18.30
2012,06,27,19,28,18.30
2012,06,27,19,29,18.20
2012,06,27,19,30,18.30
2012,06,27,19,32,18.30
2012,06,27,19,33,18.30
2012,06,27,19,34,18.30
2012,06,27,19,35,18.30
2012,06,27,19,36,18.30
2012,06,27,19,37,18.30
2012,06,27,19,38,18.30
2012,06,27,19,40,18.30
2012,06,27,19,42,18.30
2012,06,27,19,44,18.30
2012,06,27,19,46,18.30
2012,06,27,19,48,18.30
2012,06,27,19,49,18.30
2012,06,27,19,50,18.30
2012,06,27,19,51,18.40
2012,06,27,19,53,18.40
2012,06,27,19,54,18.30
2012,06,27,19,56,18.30
2012,06,27,19,58,18.30
2012,06,27,19,59,18.30
2012,06,27,20,01,18.30
2012,06,27,20,02,18.30
2012,06,27,20,05,18.30
2012,06,27,20,07,18.30
2012,06,27,20,09,18.20
2012,06,27,20,10,18.20
2012,06,27,20,11,18.20
2012,06,27,20,13,18.20
2012,06,27,20,14,18.10
2012,06,27,20,15,18.10
2012,06,27,20,17,18.00
2012,06,27,20,18,17.90
2012,06,27,20,19,17.90
2012,06,27,20,21,17.90
2012,06,27,20,22,17.80
2012,06,27,20,23,17.80
2012,06,27,20,24,17.80
2012,06,27,20,26,17.70
2012,06,27,20,27,17.70
2012,06,27,20,29,17.60
2012,06,27,20,30,17.60
2012,06,27,20,32,17.60
2012,06,27,20,33,17.60
2012,06,27,20,34,17.50
2012,06,27,20,36,17.40
2012,06,27,20,37,17.40
2012,06,27,20,38,17.40
2012,06,27,20,39,17.40
2012,06,27,20,41,17.40
2012,06,27,20,43,17.30
2012,06,27,20,45,17.30
2012,06,27,20,46,17.30
2012,06,27,20,47,17.30
2012,06,27,20,48,17.30
2012,06,27,20,50,17.30
2012,06,27,20,51,17.30
2012,06,27,20,52,17.30
2012,06,27,20,54,17.30
2012,06,27,20,55,17.30
2012,06,27,20,56,17.20
2012,06,27,20,57,17.20
2012,06,27,20,58,17.20
2012,06,27,20,59,17.20
2012,06,27,21,00,17.10
2012,06,27,21,01,17.10
2012,06,27,21,02,17.10
2012,06,27,21,03,17.10
2012,06,27,21,05,17.00
2012,06,27,21,06,16.90
2012,06,27,21,07,16.90
2012,06,27,21,08,16.90
2012,06,27,21,09,16.90
2012,06,27,21,10,16.80
2012,06,27,21,11,16.80
2012,06,27,21,12,16.80
2012,06,27,21,13,16.80
2012,06,27,21,14,16.80
2012,06,27,21,15,16.70
2012,06,27,21,16,16.70
2012,06,27,21,17,16.70
2012,06,27,21,18,16.70
2012,06,27,21,19,16.60
2012,06,27,21,20,16.60
2012,06,27,21,22,16.60
2012,06,27,21,23,16.60
2012,06,27,21,24,16.50
2012,06,27,21,25,16.40
2012,06,27,21,26,16.40
2012,06,27,21,27,16.40
2012,06,27,21,28,16.40
2012,06,27,21,29,16.40
2012,06,27,21,30,16.40
2012,06,27,21,31,16.40
2012,06,27,21,32,16.30
2012,06,27,21,33,16.30
2012,06,27,21,34,16.30
2012,06,27,21,36,16.30
2012,06,27,21,37,16.30
2012,06,27,21,38,16.30
2012,06,27,21,39,16.30
2012,06,27,21,40,16.30
2012,06,27,21,41,16.20
2012,06,27,21,42,16.20
2012,06,27,21,43,16.20
2012,06,27,21,44,16.20
2012,06,27,21,45,16.20
2012,06,27,21,46,16.20
2012,06,27,21,47,16.20
2012,06,27,21,48,16.20
2012,06,27,21,49,16.20
2012,06,27,21,50,16.10
2012,06,27,21,51,16.10
2012,06,27,21,52,16.10
2012,06,27,21,53,16.10
2012,06,27,21,54,16.10
2012,06,27,21,55,16.10
2012,06,27,21,56,16.10
2012,06,27,21,57,16.10
2012,06,27,21,58,16.10
2012,06,27,21,59,16.10
2012,06,27,22,01,16.10
2012,06,27,22,05,16.00
2012,06,27,22,06,16.00
2012,06,27,22,07,15.90
2012,06,27,22,09,15.90
2012,06,27,22,10,15.90
2012,06,27,22,11,15.80
2012,06,27,22,13,15.80
2012,06,27,22,14,15.80
2012,06,27,22,16,15.80
2012,06,27,22,17,15.80
2012,06,27,22,18,15.70
2012,06,27,22,20,15.70
2012,06,27,22,21,15.70
2012,06,27,22,22,15.70
2012,06,27,22,23,15.70
2012,06,27,22,25,15.70
2012,06,27,22,26,15.60
2012,06,27,22,27,15.60
2012,06,27,22,29,15.60